Location: Unspecified
(50.7693°N, 0.0000°E)
Time: 13:34:13
(UTC+00:00)

Transit 2A Rocket - Pass Details

Date: 24 October 2019
Orbit: 594 x 909 km, 66.7° (Epoch: 21 November)

Event Time Altitude Azimuth Distance (km) Brightness Sun altitude
Exits shadow 05:47:35 - 259° (W) 2,209 6.8 -8.5°
Reaches altitude 10° 05:47:48 10° 261° (W) 2,137 6.7 -8.5°
Maximum altitude 05:52:00 29° 322° (NW) 1,190 5.6 -7.8°
Drops below altitude 10° 05:55:58 10° 23° (NNE) 2,007 7.4 -7.2°
Sets 05:58:25 0° 35° (NE) 2,886 8.4 -6.8°
